Location: ??????
(42.0089°N, 44.3281°E)
Time: 17:50:48
(UTC+00:00)

NOSS 8 (H) - Pass Details

Date: 31 May 2022
Orbit: 366 x 1779 km, 63.3° (Epoch: 02 July)

Event Time Altitude Azimuth Distance (km) Brightness Sun altitude
Rises 18:25:27 0° 326° (NW) 2,521 10.0 -16.7°
Reaches altitude 10° 18:27:18 10° 328° (NNW) 1,758 8.7 -16.9°
Maximum altitude 18:31:10 77° 54° (NE) 663 5.1 -17.3°
Enters shadow 18:33:29 32° 136° (SE) 1,236 6.0 -17.5°
